This is the latest recevied weather packets stored in our database for station/object DJ3AN. If no packets are shown the sender has not sent any weather packets the latest 10 day(s).
| Time | Temp. | Humidity | Pressure | Rain* | Wind** | Luminosity | Snow |
|---|---|---|---|---|---|---|---|
| 1777821305 | 23.89° C | 48% | 1007 hPa | 0 mm | - | - | - |
| 1777821005 | 23.89° C | 47% | 1007 hPa | 0 mm | - | - | - |
| 1777820705 | 24.44° C | 47% | 1007 hPa | 0 mm | - | - | - |
| 1777820405 | 24.44° C | 47% | 1007 hPa | 0 mm | - | - | - |
| 1777820105 | 24.44° C | 45% | 1007 hPa | 0 mm | - | - | - |
| 1777819806 | 25° C | 44% | 1007.1 hPa | 0 mm | - | - | - |
| 1777819505 | 25° C | 44% | 1007.1 hPa | 0 mm | - | - | - |
| 1777819205 | 25° C | 43% | 1007.1 hPa | 0 mm | - | - | - |
| 1777818905 | 25° C | 44% | 1007.1 hPa | 0 mm | - | - | - |
| 1777818605 | 25.56° C | 45% | 1007.2 hPa | 0 mm | - | - | - |
| 1777818305 | 25.56° C | 43% | 1007.2 hPa | 0 mm | - | - | - |
| 1777818005 | 25.56° C | 43% | 1007.2 hPa | 0 mm | - | - | - |
| 1777817705 | 25.56° C | 43% | 1007.2 hPa | 0 mm | - | - | - |
| 1777817405 | 26.11° C | 43% | 1007.2 hPa | 0 mm | - | - | - |
| 1777817105 | 26.11° C | 45% | 1007.3 hPa | 0 mm | - | - | - |
| 1777816806 | 26.67° C | 44% | 1007.3 hPa | 0 mm | - | - | - |
| 1777816505 | 26.11° C | 46% | 1007.3 hPa | 0 mm | - | - | - |
| 1777816207 | 26.11° C | 44% | 1007.5 hPa | 0 mm | - | - | - |
| 1777815906 | 25.56° C | 45% | 1007.6 hPa | 0 mm | - | - | - |
| 1777815606 | 25.56° C | 48% | 1007.7 hPa | 0 mm | - | - | - |
| 1777815306 | 25° C | 47% | 1007.8 hPa | 0 mm | - | - | - |
| 1777815006 | 25° C | 51% | 1007.8 hPa | 0 mm | - | - | - |
| 1777814706 | 25° C | 50% | 1008 hPa | 0 mm | - | - | - |
| 1777814406 | 25° C | 50% | 1008 hPa | 0 mm | - | - | - |
| 1777814106 | 25.56° C | 47% | 1008.1 hPa | 0 mm | - | - | - |
* Rain latest hour (hover to see other rain measurements)
** Current wind speed in m/s (hover to see current wind gust speed)